{"data":{"norad_id":55340,"intl_designator":"2023-013K","name":"STARLINK-5675","alt_names":[],"object_type":"PAYLOAD","status":"ACTIVE","operator":null,"country":"US","launch_date":"2023-01-26","launch_site_code":"AFETR","launch_vehicle":null,"mission":null,"orbit_class":"UNKNOWN","rcs_meters":null,"size_class":null,"mass_kg":null,"dimensions":null,"purposes":["comms"],"wikipedia_slug":null,"has_3d_model":false,"image_url":null,"decayed_at":null,"tle_current":{"epoch":"2026-05-24T12:30:39.710016Z","epoch_age_seconds":116153,"freshness":"FRESH","line1":"1 55340U 23013K   26144.52129294  .00001728  00000+0  72341-4 0  9995","line2":"2 55340  43.0027 234.9197 0001785 271.4059  88.6589 15.27571284183276","mean_motion":15.27571284,"eccentricity":0.0001785,"inclination_deg":43.0027,"raan_deg":234.9197,"arg_perigee_deg":271.4059,"mean_anomaly_deg":88.6589,"bstar":7.2341e-5,"rev_number":18327,"period_min":94.267286579865,"perigee_km":481.85046862651,"apogee_km":484.29992138012,"semimajor_km":6861.2121950033,"source":"CELESTRAK","updated_at":"2026-05-25T13:38:17.761575Z"}}}